Previsão horária em Júlio de Castilhos

Hoje, 23 Junho, Quarta-feira

Tempo Temperatura Precipitação Vento Pressão Humidade
00:00 +9°C° 0 mm 3 m/s 722 mmHg 95%
01:00 +9°C° 0 mm 3 m/s 721 mmHg 95%
02:00 +9°C° 0 mm 3 m/s 721 mmHg 95%
03:00 +9°C° 0 mm 3 m/s 721 mmHg 94%
04:00 +8°C° 0 mm 4 m/s 721 mmHg 94%
05:00 +8°C° 0 mm 4 m/s 720 mmHg 93%
06:00 +10°C° 0 mm 4 m/s 721 mmHg 90%
07:00 +11°C° 0 mm 4 m/s 721 mmHg 87%
08:00 +12°C° 0 mm 5 m/s 721 mmHg 83%
09:00 +12°C° 0 mm 4 m/s 721 mmHg 82%
10:00 +13°C° 0 mm 4 m/s 721 mmHg 81%
11:00 +14°C° 0 mm 4 m/s 721 mmHg 80%
12:00 +14°C° 0.1 mm 4 m/s 720 mmHg 80%
13:00 +14°C° 0.1 mm 4 m/s 720 mmHg 81%
14:00 +15°C° 0.1 mm 4 m/s 719 mmHg 81%
15:00 +15°C° 0.1 mm 4 m/s 719 mmHg 84%
16:00 +14°C° 0.1 mm 4 m/s 719 mmHg 86%
17:00 +14°C° 0.1 mm 5 m/s 719 mmHg 88%
18:00 +14°C° 0 mm 5 m/s 718 mmHg 88%
19:00 +14°C° 0 mm 5 m/s 718 mmHg 87%
20:00 +14°C° 0 mm 5 m/s 718 mmHg 87%
21:00 +14°C° 0 mm 6 m/s 717 mmHg 85%
22:00 +14°C° 0 mm 7 m/s 716 mmHg 84%
23:00 +15°C° 0 mm 8 m/s 716 mmHg 83%

Amanhã, 24 Junho, Quinta-feira

Tempo Temperatura Precipitação Vento Pressão Humidade
00:00 +15°C° 0 mm 8 m/s 715 mmHg 80%
01:00 +15°C° 0 mm 8 m/s 714 mmHg 78%
02:00 +16°C° 0 mm 8 m/s 713 mmHg 76%
03:00 +16°C° 0.2 mm 8 m/s 713 mmHg 77%
04:00 +16°C° 0.2 mm 8 m/s 712 mmHg 78%
05:00 +16°C° 0.2 mm 9 m/s 712 mmHg 78%
06:00 +15°C° 4.2 mm 7 m/s 713 mmHg 84%
07:00 +14°C° 4.2 mm 5 m/s 715 mmHg 89%
08:00 +14°C° 4.2 mm 4 m/s 716 mmHg 95%
09:00 +14°C° 4.4 mm 4 m/s 716 mmHg 96%
10:00 +14°C° 4.4 mm 3 m/s 716 mmHg 96%
11:00 +14°C° 4.4 mm 3 m/s 716 mmHg 97%
12:00 +14°C° 0.4 mm 4 m/s 715 mmHg 96%
13:00 +15°C° 0.4 mm 4 m/s 715 mmHg 95%
14:00 +15°C° 0.4 mm 5 m/s 714 mmHg 94%
15:00 +15°C° 0.2 mm 5 m/s 715 mmHg 94%
16:00 +15°C° 0.2 mm 5 m/s 716 mmHg 94%
17:00 +15°C° 0.2 mm 5 m/s 716 mmHg 94%
18:00 +15°C° 0.1 mm 4 m/s 717 mmHg 94%
19:00 +14°C° 0.1 mm 4 m/s 717 mmHg 95%
20:00 +14°C° 0.1 mm 3 m/s 718 mmHg 95%
21:00 +13°C° 0 mm 3 m/s 718 mmHg 94%
22:00 +12°C° 0 mm 3 m/s 719 mmHg 94%
23:00 +11°C° 0 mm 3 m/s 719 mmHg 93%

Depois de amanhã, 25 Junho, Sexta-feira

Tempo Temperatura Precipitação Vento Pressão Humidade
00:00 +10°C° 0 mm 2 m/s 719 mmHg 94%
01:00 +9°C° 0 mm 2 m/s 719 mmHg 94%
02:00 +10°C° 0 mm 1 m/s 719 mmHg 95%
03:00 +9°C° 0 mm 1 m/s 719 mmHg 94%
04:00 +9°C° 0 mm 1 m/s 719 mmHg 94%
05:00 +9°C° 0 mm 1 m/s 719 mmHg 94%
06:00 +10°C° 0 mm 1 m/s 719 mmHg 93%
07:00 +10°C° 0 mm 1 m/s 720 mmHg 91%
08:00 +10°C° 0 mm 2 m/s 720 mmHg 90%
09:00 +13°C° 0 mm 2 m/s 720 mmHg 83%
10:00 +14°C° 0 mm 2 m/s 720 mmHg 77%
11:00 +16°C° 0 mm 3 m/s 720 mmHg 71%
12:00 +16°C° 0 mm 3 m/s 720 mmHg 68%
13:00 +17°C° 0 mm 2 m/s 719 mmHg 66%
14:00 +18°C° 0 mm 2 m/s 719 mmHg 63%
15:00 +16°C° 0 mm 2 m/s 718 mmHg 70%
16:00 +15°C° 0 mm 2 m/s 718 mmHg 78%
17:00 +13°C° 0 mm 2 m/s 718 mmHg 85%
18:00 +13°C° 0 mm 2 m/s 718 mmHg 85%
19:00 +13°C° 0 mm 2 m/s 718 mmHg 85%
20:00 +13°C° 0 mm 2 m/s 718 mmHg 86%
21:00 +13°C° 0.2 mm 2 m/s 718 mmHg 88%
22:00 +13°C° 0.2 mm 2 m/s 718 mmHg 91%
23:00 +13°C° 0.2 mm 2 m/s 717 mmHg 94%

26 Junho, Sábado

Tempo Temperatura Precipitação Vento Pressão Humidade
00:00 +13°C° 0.6 mm 2 m/s 717 mmHg 95%
01:00 +14°C° 0.6 mm 2 m/s 717 mmHg 96%
02:00 +14°C° 0.6 mm 2 m/s 717 mmHg 97%
03:00 +14°C° 2.4 mm 2 m/s 716 mmHg 98%
04:00 +15°C° 2.4 mm 2 m/s 716 mmHg 98%
05:00 +15°C° 2.4 mm 2 m/s 716 mmHg 98%
06:00 +16°C° 2.3 mm 2 m/s 716 mmHg 98%
07:00 +16°C° 2.3 mm 2 m/s 717 mmHg 98%
08:00 +16°C° 2.3 mm 2 m/s 717 mmHg 98%
09:00 +16°C° 3.5 mm 2 m/s 717 mmHg 98%
10:00 +17°C° 3.5 mm 2 m/s 717 mmHg 98%
11:00 +18°C° 3.5 mm 1 m/s 717 mmHg 98%
12:00 +18°C° 1.4 mm 1 m/s 716 mmHg 97%
13:00 +19°C° 1.4 mm 1 m/s 716 mmHg 95%
14:00 +19°C° 1.4 mm 1 m/s 716 mmHg 94%
15:00 +19°C° 0.4 mm 1 m/s 716 mmHg 95%
16:00 +18°C° 0.4 mm 1 m/s 716 mmHg 97%
17:00 +16°C° 0.4 mm 0 m/s 716 mmHg 98%
18:00 +18°C° 0.1 mm 1 m/s 716 mmHg 98%
19:00 +16°C° 0.1 mm 1 m/s 716 mmHg 98%
20:00 +16°C° 0.1 mm 2 m/s 717 mmHg 98%
21:00 +14°C° 0.9 mm 3 m/s 717 mmHg 98%
22:00 +14°C° 0.9 mm 4 m/s 717 mmHg 98%
23:00 +13°C° 0.9 mm 5 m/s 717 mmHg 98%

27 Junho, Domingo

Tempo Temperatura Precipitação Vento Pressão Humidade
00:00 +12°C° 6.1 mm 5 m/s 717 mmHg 97%
01:00 +12°C° 6.1 mm 5 m/s 717 mmHg 97%
02:00 +10°C° 6.1 mm 5 m/s 717 mmHg 97%
03:00 +9°C° 4.7 mm 6 m/s 718 mmHg 97%
04:00 +9°C° 4.7 mm 6 m/s 719 mmHg 97%
05:00 +8°C° 4.7 mm 6 m/s 719 mmHg 96%
06:00 +8°C° 1.6 mm 6 m/s 720 mmHg 96%
07:00 +8°C° 1.6 mm 5 m/s 721 mmHg 96%
08:00 +8°C° 1.6 mm 5 m/s 722 mmHg 96%
09:00 +8°C° 1.4 mm 5 m/s 722 mmHg 96%
10:00 +8°C° 1.4 mm 5 m/s 723 mmHg 96%
11:00 +7°C° 1.4 mm 5 m/s 723 mmHg 96%
12:00 +7°C° 0.3 mm 5 m/s 723 mmHg 95%
13:00 +7°C° 0.3 mm 5 m/s 723 mmHg 95%
14:00 +6°C° 0.3 mm 5 m/s 723 mmHg 94%
15:00 +6°C° 0.1 mm 5 m/s 724 mmHg 93%
16:00 +6°C° 0.1 mm 4 m/s 724 mmHg 93%
17:00 +6°C° 0.1 mm 4 m/s 725 mmHg 92%
18:00 +6°C° 0 mm 4 m/s 726 mmHg 92%
19:00 +6°C° 0 mm 4 m/s 726 mmHg 92%
20:00 +6°C° 0 mm 4 m/s 727 mmHg 91%
21:00 +5°C° 0 mm 4 m/s 727 mmHg 91%
22:00 +4°C° 0 mm 4 m/s 727 mmHg 91%
23:00 +4°C° 0 mm 4 m/s 727 mmHg 92%

28 Junho, Segunda-feira

Tempo Temperatura Precipitação Vento Pressão Humidade
00:00 +4°C° 0 mm 3 m/s 728 mmHg 92%
01:00 +3°C° 0 mm 3 m/s 728 mmHg 93%
02:00 +3°C° 0 mm 3 m/s 728 mmHg 93%
03:00 +3°C° 0 mm 3 m/s 728 mmHg 93%
04:00 +2°C° 0 mm 3 m/s 728 mmHg 92%
05:00 +2°C° 0 mm 3 m/s 728 mmHg 91%
06:00 +3°C° 0 mm 3 m/s 729 mmHg 90%
07:00 +3°C° 0 mm 3 m/s 729 mmHg 89%
08:00 +3°C° 0 mm 3 m/s 729 mmHg 88%
09:00 +4°C° 0 mm 4 m/s 730 mmHg 83%
10:00 +5°C° 0 mm 4 m/s 730 mmHg 79%
11:00 +6°C° 0 mm 5 m/s 730 mmHg 74%
12:00 +7°C° 0 mm 5 m/s 730 mmHg 73%
13:00 +7°C° 0 mm 5 m/s 729 mmHg 72%
14:00 +7°C° 0 mm 5 m/s 729 mmHg 71%
15:00 +7°C° 0 mm 4 m/s 729 mmHg 76%
16:00 +6°C° 0 mm 4 m/s 729 mmHg 80%
17:00 +5°C° 0 mm 3 m/s 729 mmHg 84%
18:00 +5°C° 0 mm 4 m/s 729 mmHg 85%
19:00 +5°C° 0 mm 4 m/s 729 mmHg 86%
20:00 +5°C° 0 mm 5 m/s 729 mmHg 88%
21:00 +5°C° 0 mm 5 m/s 729 mmHg 88%
22:00 +5°C° 0 mm 5 m/s 729 mmHg 88%
23:00 +6°C° 0 mm 5 m/s 729 mmHg 88%
Mostrar mais

Necessitamos do seu Consentimento

A Meteoprog e os seus Fornecedores de Serviços podem armazenar e aceder a dados pessoais como cookies, identificadores do dispositivo ou outras tecnologias semelhantes existentes no seu dispositivo e processar estes dados para personalizar conteúdos e anúncios, assim como funcionalidades nas redes sociais e análise de tráfego.

  • Armazenar e/ou aceder a informações no seu dispositivo

    Os cookies, identificadores do dispositivo ou outras informações podem ser armazenados ou acedidos no seu dispositivo, para os fins acima indicados.

  • Anúncios e conteúdos personalizados, medição de anúncios e conteúdos, dados sobre o público-alvo e desenvolvimento de produtos

    Os anúncios e os conteúdos podem ser personalizados com base num perfil. Podem ser adicionados dados adicionais para uma maior personalização dos anúncios e dos conteúdos. A eficácia dos anúncios e dos conteúdos pode ser medida. Podem ser obtidas informações sobre o público que visualizou os anúncios e os conteúdos. Estes dados podem ser usados para desenvolver ou melhorar sistemas, softwares ou a experiência do utilizador.

Ao clicar em "Eu concordo”, permitirá o uso de cookies, identificadores do dispositivo e web beacons mencionados ou outras tecnologias semelhantes. As configurações do navegador do seu dispositivo podem ser alteradas.

Para certos fins, podem ser invocados interesses legítimos ao invés de consentimento. Pode ler mais informação sobre este assunto na nossa Política de Privacidade e Cookies.